Date,TemperatureHighF,TemperatureAvgF,TemperatureLowF,DewpointHighF,DewpointAvgF,DewpointLowF,HumidityHigh,HumidityAvg,HumidityLow,PressureMaxIn,PressureMinIn,WindSpeedMaxMPH,WindSpeedAvgMPH,GustSpeedMaxMPH,PrecipitationSumIn
2013-1-1,57.2,43.0,32.1,34.1,26.7,13.4,84,57,22,30.18,30.03,4,0,6,0.00
2013-1-2,67.1,44.7,30.7,25.7,22.1,13.1,74,47,14,30.09,29.95,4,0,6,0.00
2013-1-3,69.1,45.5,30.3,26.7,20.1,11.0,71,43,11,30.13,29.98,2,0,4,0.00
2013-1-4,64.5,43.5,28.1,23.5,17.7,6.0,69,42,11,30.22,30.10,4,0,7,0.00
2013-1-5,68.1,45.1,29.0,24.8,19.0,8.4,70,41,11,30.25,30.10,3,0,6,0.00
2013-1-6,56.5,45.2,36.2,39.2,33.2,23.3,81,64,43,30.13,29.93,6,0,12,0.00
2013-1-7,66.0,47.6,35.5,38.3,29.5,19.6,89,56,17,30.01,29.87,11,1,18,0.00
2013-1-8,74.4,50.3,31.9,31.7,25.8,19.4,74,44,13,30.07,29.95,3,0,5,0.00
2013-1-9,73.7,53.0,37.6,44.0,34.0,29.5,88,54,21,30.08,29.88,6,0,10,0.00
2013-1-10,50.7,46.1,33.4,45.2,36.1,19.4,89,69,32,30.00,29.81,8,1,16,0.04
2013-1-11,52.5,39.6,27.8,26.2,21.4,12.1,75,52,23,30.12,29.97,7,0,12,0.00
2013-1-12,53.8,37.4,25.8,26.3,19.5,5.7,81,53,18,30.09,29.98,4,0,6,0.00
2013-1-13,54.1,37.8,25.0,20.7,15.8,9.7,72,45,19,30.11,29.98,5,0,9,0.00
2013-1-14,50.7,36.1,23.6,17.5,8.7,-6.6,66,37,9,30.28,30.06,9,0,16,0.00
2013-1-15,59.8,40.6,24.8,25.0,14.7,6.3,61,38,16,30.39,30.23,3,0,6,0.00
2013-1-16,69.9,48.4,30.1,27.9,22.7,19.7,70,41,16,30.30,30.05,4,0,9,0.00
2013-1-17,76.7,52.4,33.7,26.6,20.2,11.3,64,35,9,30.12,29.98,4,0,9,0.00
2013-1-18,77.9,53.2,33.7,28.8,21.4,12.9,62,35,10,30.11,29.98,3,0,7,0.00
2013-1-19,77.7,53.8,33.5,25.9,19.2,10.1,65,32,8,30.14,30.01,4,0,5,0.00
2013-1-20,78.5,52.6,32.4,24.0,16.8,6.6,60,30,7,30.10,29.94,3,0,4,0.00
2013-1-21,78.6,53.1,31.9,22.8,15.1,3.1,55,28,6,30.04,29.95,3,0,5,0.00
2013-1-22,80.3,54.4,32.8,26.5,17.0,5.5,52,28,6,30.07,29.93,4,0,7,0.00
2013-1-23,75.8,59.1,46.4,40.1,30.4,22.1,54,35,19,30.03,29.94,4,0,9,0.00
2013-1-24,64.5,56.3,49.8,52.7,46.3,31.2,88,71,36,30.14,29.99,2,0,4,0.16
2013-1-25,60.7,57.1,54.7,55.4,52.5,48.3,89,85,73,30.06,29.85,3,0,10,0.30
2013-1-26,62.0,56.7,54.4,56.1,52.7,51.2,91,87,72,29.90,29.80,6,0,13,0.17
2013-1-27,57.0,51.8,45.4,51.0,44.4,36.9,89,77,54,29.95,29.87,9,1,17,0.00
2013-1-28,54.8,44.2,35.8,40.3,31.3,21.7,89,64,29,30.11,29.92,10,1,15,0.11
2013-1-29,60.1,45.1,32.7,40.4,33.4,26.7,83,65,34,30.16,30.06,5,0,10,0.00
2013-1-30,71.5,50.8,35.0,40.3,34.6,31.2,88,60,24,30.25,30.12,7,0,12,0.00
2013-1-31,75.6,54.8,38.5,41.0,34.4,29.9,81,52,20,30.17,30.01,7,0,12,0.00
2013-2-1,77.6,56.9,38.9,40.3,33.9,27.3,76,47,16,30.11,30.01,4,0,7,0.00
2013-2-2,76.5,59.4,45.5,45.6,37.8,28.3,72,48,17,30.14,30.01,3,0,7,0.00
2013-2-3,71.8,59.7,47.7,46.0,42.7,38.0,75,55,32,30.04,29.90,4,0,7,0.00
2013-2-4,74.9,56.8,41.1,46.4,39.7,32.2,85,58,22,30.00,29.87,6,0,12,0.00
2013-2-5,69.4,52.7,39.6,47.2,42.0,34.9,86,69,37,29.99,29.87,8,1,12,0.00
2013-2-6,64.7,52.4,42.5,45.5,42.4,36.6,88,70,42,30.03,29.89,3,0,6,0.00
2013-2-7,68.3,50.2,35.3,45.9,39.2,31.5,88,69,31,30.07,29.90,7,1,14,0.00
2013-2-8,49.8,42.3,37.8,40.9,36.5,33.4,86,80,64,29.92,29.82,10,1,16,0.23
2013-2-9,54.4,43.6,33.8,37.4,33.7,29.6,88,69,43,30.03,29.84,5,0,10,0.00
2013-2-10,53.2,44.1,32.7,37.6,33.8,28.7,85,68,43,30.03,29.93,5,0,11,0.00
2013-2-11,60.4,46.2,34.6,38.7,25.2,7.8,87,51,16,30.17,29.96,5,0,10,0.00
2013-2-12,61.6,45.5,29.5,28.7,21.7,8.6,72,43,13,30.27,30.15,5,0,7,0.00
2013-2-13,70.8,49.9,32.2,37.9,26.9,19.8,76,47,15,30.20,30.05,4,0,6,0.00
2013-2-14,77.4,55.0,34.9,35.4,28.2,19.9,77,42,14,30.12,29.95,7,0,12,0.00
2013-2-15,76.8,57.6,39.9,31.5,24.2,13.7,62,32,11,30.14,30.03,4,0,7,0.00
2013-2-16,80.1,57.5,38.8,32.2,21.1,3.6,58,29,7,30.12,29.90,5,0,9,0.00
2013-2-17,71.5,53.0,36.3,44.2,29.9,13.6,87,47,18,29.93,29.81,7,1,14,0.00
2013-2-18,67.4,50.4,40.3,44.2,40.3,34.7,90,72,31,30.00,29.85,5,1,12,0.00
2013-2-19,49.9,46.0,40.5,42.5,39.0,34.9,86,77,62,29.89,29.62,7,1,14,0.33
2013-2-20,55.1,43.7,34.3,36.7,32.3,26.8,87,66,34,29.94,29.59,7,0,12,0.07
2013-2-21,57.0,45.3,36.0,37.9,31.9,26.4,78,61,34,30.03,29.88,6,0,8,0.00
2013-2-22,66.3,48.3,31.3,34.9,28.4,16.6,83,52,16,30.13,30.02,5,0,7,0.00
2013-2-23,67.8,49.5,34.1,37.7,30.6,23.6,83,52,23,30.09,29.83,6,0,12,0.00
2013-2-24,65.5,48.8,33.5,32.9,20.0,2.5,78,40,9,30.12,29.88,6,0,12,0.00
2013-2-25,69.1,49.6,30.6,28.9,18.8,9.0,63,34,11,30.17,29.99,5,0,9,0.00
2013-2-26,75.3,51.7,30.9,29.5,21.6,10.0,76,37,11,30.05,29.88,7,0,12,0.00
2013-2-27,71.1,52.2,34.6,23.9,18.6,8.2,59,31,10,30.21,30.05,9,1,15,0.00
2013-2-28,78.1,56.1,35.5,28.4,19.4,12.5,57,29,9,30.24,30.14,6,0,12,0.00
2013-3-1,83.4,60.8,38.2,33.2,24.3,16.1,62,30,9,30.24,30.08,5,0,8,0.00
2013-3-2,85.9,63.0,41.9,34.9,25.6,14.1,58,29,8,30.16,29.99,6,0,117,0.00
2013-3-3,74.9,59.6,44.8,43.3,30.1,22.3,80,36,14,30.00,29.87,5,0,12,0.00
2013-3-4,70.1,56.0,46.2,46.2,42.3,39.0,86,63,36,30.01,29.90,6,0,12,0.00
2013-3-5,71.8,54.6,41.9,48.5,44.2,38.3,89,71,38,30.02,29.90,6,1,12,0.00
2013-3-6,65.8,54.8,47.9,44.9,41.0,37.1,86,62,36,30.04,29.90,11,1,21,0.00
2013-3-7,55.7,49.2,43.5,47.8,43.2,37.4,88,80,71,29.93,29.78,5,0,9,0.17
2013-3-8,53.5,45.3,41.9,41.7,38.9,33.3,87,78,51,29.96,29.69,10,1,20,0.82
2013-3-9,60.2,50.4,43.1,44.7,40.9,37.9,86,71,47,30.14,29.95,5,0,12,0.03
2013-3-10,75.1,55.1,37.0,41.8,34.0,21.1,88,53,15,30.18,30.05,6,0,12,0.00
2013-3-11,80.5,58.5,37.8,39.1,32.5,19.3,77,44,12,30.11,29.95,6,0,10,0.00
2013-3-12,87.8,63.6,42.1,40.9,36.0,26.7,75,43,13,30.00,29.89,5,0,10,0.00
2013-3-13,91.4,67.9,46.0,43.5,37.0,25.7,71,39,11,30.02,29.91,6,0,12,0.00
2013-3-14,95.1,69.6,48.0,46.1,39.1,27.9,71,39,10,30.00,29.87,9,0,13,0.00
2013-3-15,88.6,67.2,50.1,45.7,38.1,26.6,70,39,12,29.93,29.81,6,0,10,0.00
2013-3-16,82.2,62.2,46.7,48.9,38.0,23.4,78,45,14,29.85,29.73,7,1,13,0.00
2013-3-17,77.4,58.7,47.6,51.2,45.4,35.8,91,67,23,29.90,29.80,6,0,12,0.00
2013-3-18,72.0,57.9,49.5,50.2,46.8,42.6,90,69,36,29.98,29.86,5,1,10,0.00
2013-3-19,75.8,59.5,48.8,52.4,47.3,44.3,86,67,37,30.01,29.92,8,1,13,0.00
2013-3-20,76.5,61.8,49.1,47.9,44.8,40.0,82,57,29,29.99,29.86,8,1,13,0.00
2013-3-21,77.2,60.7,47.9,48.1,44.9,38.1,84,60,28,29.86,29.70,6,1,13,0.00
2013-3-22,77.9,59.6,49.5,49.6,45.4,37.9,87,64,24,29.83,29.67,9,1,14,0.00
2013-3-23,80.7,60.5,44.3,49.9,41.3,20.4,86,57,11,29.91,29.79,7,1,13,0.00
2013-3-24,83.4,62.3,43.1,46.6,36.5,24.7,78,45,14,29.91,29.77,6,0,12,0.00
2013-3-25,84.3,63.9,45.4,45.4,37.9,25.9,74,44,13,29.88,29.76,6,0,15,0.00
2013-3-26,79.2,61.1,45.7,45.5,35.3,17.2,75,45,12,29.86,29.78,8,1,14,0.00
2013-3-27,76.5,59.0,47.1,47.6,42.7,34.1,86,58,29,29.94,29.81,8,1,16,0.00
2013-3-28,80.7,61.7,44.1,47.3,41.6,28.9,83,53,16,29.96,29.88,9,1,14,0.00
2013-3-29,85.3,64.1,46.4,50.2,44.2,31.4,81,55,16,30.01,29.90,9,1,14,0.00
2013-3-30,82.2,64.9,53.5,52.7,48.1,38.7,82,58,23,30.02,29.89,7,1,13,0.00
2013-3-31,74.7,59.7,47.4,49.8,45.2,37.4,79,61,37,30.02,29.92,8,1,16,0.00
2013-4-1,68.3,58.3,49.6,48.0,45.0,40.1,83,63,38,30.07,29.95,10,1,15,0.00
2013-4-2,77.6,62.0,51.3,49.6,46.5,36.4,82,60,25,29.98,29.85,7,1,12,0.00
2013-4-3,88.2,65.8,46.8,50.6,43.8,32.9,84,52,16,29.99,29.85,8,1,16,0.00
2013-4-4,82.8,65.7,50.1,52.6,44.5,29.1,82,52,16,29.98,29.89,13,2,18,0.00
2013-4-5,73.5,59.2,50.1,52.3,48.5,43.8,89,70,39,29.99,29.88,8,1,13,0.00
2013-4-6,77.2,61.9,53.5,51.9,49.2,45.2,85,66,34,29.97,29.84,7,1,13,0.00
2013-4-7,77.0,61.2,51.3,53.7,49.0,43.6,87,67,31,29.89,29.70,7,1,14,0.00
2013-4-8,56.7,53.4,47.6,50.6,44.0,36.3,86,71,49,29.74,29.57,12,2,25,0.02
2013-4-9,73.0,56.4,40.9,41.4,30.7,7.4,84,47,9,29.93,29.74,14,2,20,0.01
2013-4-10,84.3,61.6,40.6,33.1,27.6,12.2,69,34,7,30.01,29.86,9,1,16,0.00
2013-4-11,81.8,61.1,43.8,48.9,37.0,26.0,82,46,15,29.92,29.67,10,1,18,0.00
2013-4-12,88.0,63.8,51.4,51.3,47.8,38.7,86,62,18,29.78,29.60,7,1,13,0.00
2013-4-13,78.1,60.4,50.8,54.8,49.4,45.9,91,71,35,29.80,29.70,7,1,13,0.00
2013-4-14,61.3,54.1,50.1,48.1,46.0,43.9,84,75,55,29.80,29.70,7,1,13,0.00
2013-4-15,64.2,55.5,50.4,47.0,45.0,42.7,83,69,48,29.80,29.73,8,2,17,0.00
2013-4-16,62.9,52.9,44.9,43.3,38.1,32.4,77,59,36,29.90,29.77,8,1,18,0.00
2013-4-17,71.5,55.6,38.6,36.1,23.6,5.7,77,37,8,30.04,29.90,17,2,26,0.00
2013-4-18,77.2,58.7,38.6,30.9,19.1,6.4,54,26,7,30.13,30.00,10,1,14,0.00
2013-4-19,85.3,64.6,40.5,30.3,19.3,9.9,44,21,7,30.08,29.86,8,1,16,0.00
2013-4-20,92.7,68.7,44.6,37.9,28.2,18.9,52,25,8,29.90,29.74,8,1,16,0.00
2013-4-21,91.6,69.1,48.6,40.2,34.4,25.9,64,33,10,29.89,29.81,10,1,17,0.00
2013-4-22,85.5,64.3,47.1,47.3,38.6,26.0,80,44,14,29.88,29.75,8,1,15,0.00
2013-4-23,86.7,64.2,50.5,49.9,45.6,33.0,87,58,15,29.85,29.70,7,1,13,0.00
2013-4-24,70.9,59.2,51.7,53.0,48.2,42.8,86,68,49,29.87,29.76,9,1,15,0.00
2013-4-25,72.1,60.3,53.6,47.9,44.9,42.6,72,58,36,30.01,29.84,7,1,12,0.00
2013-4-26,86.7,65.2,46.4,51.1,44.7,35.7,82,53,18,30.05,29.95,7,1,12,0.00
2013-4-27,92.9,70.9,48.9,51.7,43.9,24.6,82,46,9,30.03,29.86,12,1,16,0.00
2013-4-28,94.3,72.2,51.0,51.3,45.7,27.7,80,46,12,29.88,29.72,10,1,15,0.00
2013-4-29,90.3,69.9,52.5,52.1,45.8,31.2,81,49,16,29.77,29.65,7,1,13,0.00
2013-4-30,79.4,61.6,53.1,53.4,50.0,46.3,88,69,33,29.79,29.67,8,1,16,0.00
2013-5-1,92.1,68.9,56.7,54.3,47.4,17.3,79,55,7,29.97,29.77,5,1,12,0.00
2013-5-2,90.7,72.2,52.6,50.7,27.1,2.6,82,32,5,30.01,29.89,6,1,14,0.00
2013-5-3,95.6,72.2,47.9,32.3,22.0,7.5,49,18,5,29.94,29.67,6,0,12,0.00
2013-5-4,84.7,65.0,49.8,50.7,35.3,17.3,76,38,10,29.74,29.61,9,1,20,0.00
2013-5-5,70.3,59.9,54.7,49.6,47.1,42.0,82,64,41,29.86,29.72,10,2,20,0.00
2013-5-6,62.3,56.6,53.3,55.4,49.8,46.4,88,78,62,29.94,29.83,7,0,13,0.25
2013-5-7,68.6,58.1,52.3,51.2,47.2,43.7,84,68,44,29.99,29.89,9,1,16,0.02
2013-5-8,73.9,61.0,54.2,51.2,47.7,44.3,81,63,37,30.00,29.92,6,1,12,0.00
2013-5-9,76.5,61.9,49.4,54.8,49.8,45.1,86,67,37,29.99,29.89,8,1,13,0.04
2013-5-10,88.4,69.2,55.1,57.0,52.4,41.9,88,61,21,29.98,29.85,8,1,14,0.00
2013-5-11,97.5,76.8,55.1,54.8,45.4,25.7,82,42,8,29.97,29.84,7,1,13,0.00
2013-5-12,101.2,80.5,58.6,49.8,40.1,25.1,63,29,8,29.95,29.80,10,1,17,0.00
2013-5-13,101.7,81.9,60.5,48.6,40.7,32.3,55,27,10,29.86,29.76,10,2,18,0.00
2013-5-14,91.4,75.7,59.8,51.1,39.9,21.0,72,32,9,29.87,29.78,9,1,15,0.00
2013-5-15,85.3,66.7,54.7,53.3,49.4,40.0,87,60,24,29.93,29.82,10,1,14,0.00
2013-5-16,82.4,64.2,54.2,54.9,51.0,45.0,87,66,30,29.88,29.74,8,1,15,0.00
2013-5-17,78.1,64.1,56.7,54.8,51.3,47.1,80,65,36,29.90,29.77,7,1,14,0.00
2013-5-18,81.6,66.6,57.6,55.1,51.2,46.6,78,60,31,29.92,29.83,7,1,13,0.00
2013-5-19,88.8,68.2,54.1,55.6,51.2,44.7,86,59,23,29.88,29.73,7,1,15,0.00
2013-5-20,94.7,73.4,54.2,56.6,48.4,29.0,80,49,11,29.83,29.74,9,1,17,0.00
2013-5-21,91.8,72.7,53.9,54.3,48.7,36.5,83,49,15,29.81,29.70,10,1,16,0.00
2013-5-22,82.6,66.1,55.9,54.6,49.7,36.6,87,60,20,29.74,29.64,9,1,17,0.00
2013-5-23,66.0,57.5,55.1,49.0,47.3,45.1,78,69,48,29.84,29.69,6,0,14,0.00
2013-5-24,80.5,65.0,55.0,49.2,44.8,34.2,79,52,21,29.87,29.79,8,1,13,0.00
2013-5-25,81.8,63.3,50.4,50.4,44.9,27.9,87,58,16,29.91,29.83,7,1,13,0.00
2013-5-26,79.4,63.2,52.0,52.5,47.2,39.7,88,60,30,29.95,29.86,7,1,13,0.00
2013-5-27,84.0,65.7,52.2,53.5,49.6,45.7,83,59,29,29.89,29.73,9,1,16,0.00
2013-5-28,80.1,64.5,55.0,56.7,52.8,50.5,86,68,39,29.77,29.64,7,1,12,0.00
2013-5-29,91.0,70.8,53.1,56.1,52.1,44.1,86,57,21,29.69,29.59,8,1,13,0.00
2013-5-30,90.1,71.7,56.0,56.5,51.2,42.7,83,53,20,29.76,29.63,7,1,13,0.00
2013-5-31,94.3,72.8,56.5,60.3,53.4,48.3,89,56,23,29.79,29.67,7,1,13,0.00
2013-6-1,102.5,77.3,59.2,57.0,51.4,27.6,79,49,8,29.74,29.58,11,1,18,0.00
2013-6-2,89.7,72.8,58.7,58.4,51.9,33.3,84,54,15,29.70,29.62,10,1,15,0.00
2013-6-3,86.5,67.3,56.7,57.7,52.9,46.8,88,65,27,29.78,29.66,8,1,14,0.00
2013-6-4,87.0,68.6,57.0,58.6,51.7,41.3,83,60,22,29.85,29.75,7,1,20,0.00
2013-6-5,89.3,69.1,54.5,58.2,52.5,44.5,87,61,22,29.89,29.75,10,1,13,0.00
2013-6-6,91.8,71.9,55.6,57.6,52.3,41.7,85,55,19,29.81,29.72,7,1,15,0.00
2013-6-7,93.6,71.6,54.8,58.5,53.8,47.5,89,58,24,29.77,29.64,6,1,13,0.00
2013-6-8,92.1,71.1,55.9,59.6,54.3,51.2,86,59,28,29.78,29.65,10,1,14,0.00
2013-6-9,90.3,71.0,55.6,59.2,49.5,27.0,86,54,11,29.79,29.74,6,1,14,0.00
2013-6-10,86.3,68.1,55.0,56.1,48.0,34.5,88,55,17,29.84,29.75,9,1,20,0.00
2013-6-11,97.8,73.8,53.1,53.5,44.9,31.3,70,41,10,29.83,29.73,7,1,13,0.00
2013-6-12,86.1,71.8,59.3,59.0,53.5,45.7,81,56,27,29.87,29.77,8,1,14,0.00
2013-6-13,92.3,72.0,55.6,57.7,52.8,45.2,88,57,22,29.89,29.75,8,1,13,0.00
2013-6-14,89.5,70.4,53.6,56.5,49.3,30.7,83,54,13,29.80,29.70,8,1,16,0.00
2013-6-15,87.8,67.5,53.2,54.7,47.9,35.5,89,57,16,29.86,29.75,7,1,14,0.00
2013-6-16,92.3,71.1,50.5,54.0,47.6,35.3,82,49,16,29.90,29.80,8,1,12,0.00
2013-6-17,93.8,74.3,54.7,53.2,47.7,35.3,81,44,14,29.85,29.76,8,1,15,0.00
2013-6-18,91.8,73.5,55.7,52.6,47.9,39.9,74,45,19,29.78,29.71,9,1,14,0.00
2013-6-19,89.7,71.4,55.3,56.2,50.0,39.0,89,53,20,29.75,29.66,8,1,14,0.00
2013-6-20,91.6,72.8,54.4,54.2,46.1,32.8,79,44,16,29.75,29.67,8,1,16,0.00
2013-6-21,91.0,72.2,53.6,51.1,43.8,37.3,62,39,18,29.79,29.69,8,1,16,0.00
2013-6-22,90.3,72.8,55.3,53.2,48.0,40.6,77,45,23,29.78,29.68,6,1,15,0.00
2013-6-23,86.1,68.8,55.4,55.5,51.2,43.2,87,58,26,29.75,29.66,8,1,17,0.00
2013-6-24,81.6,66.2,57.0,55.5,53.0,49.5,83,65,36,29.84,29.70,6,1,13,0.00
2013-6-25,89.7,73.2,57.8,59.6,55.5,52.3,83,57,31,29.87,29.77,10,1,12,0.00
2013-6-26,98.0,81.1,62.9,62.7,56.3,51.4,78,47,23,29.86,29.78,8,1,13,0.00
2013-6-27,102.3,83.8,66.0,61.3,54.9,44.1,73,41,16,29.90,29.82,7,1,13,0.00
2013-6-28,103.8,85.0,65.0,59.5,53.5,48.2,70,37,18,29.87,29.72,9,1,16,0.00
2013-6-29,109.1,87.3,66.6,57.3,51.1,39.6,60,33,11,29.77,29.60,6,1,19,0.00
2013-6-30,106.0,85.9,68.8,60.3,52.1,42.5,59,34,13,29.68,29.59,10,1,16,0.00
2013-7-1,101.7,85.7,72.1,59.1,51.6,41.6,55,34,14,29.76,29.66,8,1,16,0.00
2013-7-2,100.7,81.5,67.6,61.0,54.3,44.4,61,41,16,29.84,29.75,9,1,18,0.00
2013-7-3,100.2,81.2,67.4,60.8,53.5,45.1,68,42,18,29.81,29.66,8,1,14,0.00
2013-7-4,100.4,81.4,65.8,55.4,48.4,32.6,65,36,12,29.69,29.60,8,1,14,0.00
2013-7-5,94.3,77.8,63.5,57.5,53.0,43.9,72,47,20,29.72,29.63,6,1,12,0.00
2013-7-6,97.5,77.0,62.6,62.8,57.7,51.5,81,55,23,29.70,29.60,7,1,12,0.00
2013-7-7,99.9,80.8,62.6,61.6,53.4,35.6,83,47,12,29.73,29.62,10,1,17,0.00
2013-7-8,104.9,84.2,62.1,59.2,48.0,33.1,71,36,9,29.80,29.71,10,1,14,0.00
2013-7-9,103.8,85.8,68.9,57.7,49.1,39.3,50,30,14,29.84,29.77,9,1,17,0.00
2013-7-10,88.8,78.9,73.0,59.4,54.1,47.8,57,43,28,29.85,29.80,6,1,13,0.00
2013-7-11,85.1,75.0,69.1,62.0,58.1,51.6,72,57,35,29.87,29.76,4,0,10,0.00
2013-7-12,95.4,78.7,66.8,63.7,59.4,53.4,80,55,27,29.82,29.70,7,1,15,0.00
2013-7-13,98.7,79.8,63.2,61.6,56.0,39.2,85,50,15,29.83,29.70,7,1,13,0.00
2013-7-14,101.0,81.8,69.6,60.6,52.9,42.8,66,41,16,29.81,29.68,8,1,13,0.00
2013-7-15,96.6,80.9,64.8,56.9,46.4,35.4,64,33,14,29.74,29.66,13,2,21,0.00
2013-7-16,96.6,77.8,60.4,52.8,43.9,20.6,71,36,8,29.86,29.72,8,1,14,0.00
2013-7-17,99.2,78.0,55.9,48.1,38.9,17.6,61,29,6,29.90,29.81,8,1,15,0.00
2013-7-18,96.8,78.6,58.4,56.8,42.2,28.5,64,32,9,29.86,29.72,7,1,12,0.00
2013-7-19,98.0,77.5,63.2,57.4,51.0,34.7,69,45,13,29.78,29.67,8,1,14,0.00
2013-7-20,91.4,74.4,64.5,68.9,58.8,55.5,75,60,39,29.77,29.65,6,1,12,0.00
2013-7-21,90.3,74.6,68.3,65.5,59.9,56.2,76,61,39,29.81,29.65,9,0,12,0.00
2013-7-22,92.7,77.7,66.6,66.4,60.6,57.2,80,58,36,29.86,29.78,7,1,14,0.00
2013-7-23,94.3,78.7,65.5,65.2,58.2,53.3,76,52,28,29.89,29.77,7,1,15,0.00
2013-7-24,96.6,79.9,65.8,63.1,57.2,50.9,73,49,22,29.84,29.73,10,1,16,0.00
2013-7-25,99.7,80.9,65.2,61.5,56.4,49.0,75,47,21,29.88,29.76,8,1,13,0.00
2013-7-26,96.8,78.6,67.8,67.1,58.9,53.7,83,53,25,29.96,29.83,8,1,12,0.15
2013-7-27,96.8,79.8,68.3,63.4,57.2,51.5,72,49,26,29.88,29.73,8,1,15,0.00
2013-7-28,92.7,75.3,60.7,60.9,50.2,32.3,84,49,13,29.80,29.72,7,1,15,0.00
2013-7-29,93.6,73.8,56.7,56.4,50.6,43.5,84,50,20,29.90,29.77,6,1,12,0.00
2013-7-30,94.0,74.5,60.4,56.1,51.9,44.8,76,50,20,29.98,29.87,7,1,13,0.00
2013-7-31,88.6,71.8,59.5,59.6,53.9,48.6,80,57,26,29.97,29.86,6,1,12,0.00
2013-8-1,86.5,63.2,55.1,58.2,52.8,43.0,88,72,22,29.93,29.82,5,0,8,0.00
2013-8-2,91.0,74.6,55.4,56.2,50.6,37.9,86,48,17,29.85,29.76,7,1,13,0.00
2013-8-3,92.5,72.5,54.8,57.3,50.4,38.9,85,52,16,29.87,29.78,6,1,15,0.00
2013-8-4,95.9,75.5,57.8,57.1,50.7,39.3,83,48,15,29.88,29.79,7,1,15,0.00
2013-8-5,98.2,75.6,56.0,53.2,45.9,24.8,74,41,9,29.87,29.78,7,1,13,0.00
2013-8-6,95.1,74.3,56.6,54.6,46.6,27.7,82,45,13,29.89,29.81,8,1,16,0.00
2013-8-7,92.5,73.6,55.3,53.7,45.6,24.6,75,43,10,29.94,29.84,8,1,13,0.00
2013-8-8,94.0,74.0,55.4,50.5,43.5,27.3,74,39,12,29.87,29.78,7,1,15,0.00
2013-8-9,90.1,70.8,53.2,52.0,43.8,28.6,79,44,13,29.85,29.77,7,1,16,0.00
2013-8-10,89.9,70.2,51.3,51.8,44.7,36.1,70,43,18,29.90,29.82,8,1,13,0.00
2013-8-11,94.5,73.3,54.4,53.0,47.6,34.5,75,45,13,29.88,29.75,7,1,13,0.00
2013-8-12,97.1,75.2,56.3,54.7,50.0,39.3,82,47,15,29.84,29.74,7,1,12,0.00
2013-8-13,101.0,77.6,58.4,57.0,52.0,36.0,81,48,13,29.85,29.71,10,1,14,0.00
2013-8-14,104.1,79.9,58.9,58.8,51.4,33.5,82,46,10,29.80,29.68,7,1,16,0.00
2013-8-15,103.1,81.2,62.4,56.5,48.4,23.5,78,40,9,29.82,29.73,8,1,15,0.00
2013-8-16,101.7,82.2,64.2,56.5,49.4,38.3,64,35,15,29.83,29.75,7,1,13,0.00
2013-8-17,103.1,82.5,64.2,55.6,51.7,44.1,70,38,15,29.82,29.66,7,1,13,0.00
2013-8-18,101.0,82.7,67.4,57.3,50.9,45.6,58,36,18,29.75,29.66,8,1,14,0.00
2013-8-19,97.5,80.8,68.8,60.5,54.3,43.9,65,42,20,29.79,29.69,7,1,12,0.00
2013-8-20,99.9,81.7,64.5,56.3,50.1,37.8,72,38,13,29.79,29.69,5,1,13,0.00
2013-8-21,104.4,82.7,62.1,54.4,49.2,36.8,71,36,11,29.79,29.68,6,1,13,0.00
2013-8-22,103.6,84.3,64.8,52.5,46.7,38.0,56,31,12,29.80,29.66,10,1,15,0.00
2013-8-23,102.8,81.8,64.3,54.5,45.2,37.4,61,31,13,29.74,29.60,8,1,14,0.00
2013-8-24,100.4,80.3,61.2,59.4,42.5,23.5,59,32,7,29.74,29.63,7,1,16,0.00
2013-8-25,97.3,81.0,66.0,60.5,50.6,38.8,63,37,20,29.81,29.71,9,1,16,0.00
2013-8-26,88.2,80.0,72.7,64.2,60.2,56.1,65,52,34,29.82,29.70,5,0,9,0.00
2013-8-27,98.5,82.2,69.3,65.6,59.0,53.6,75,48,27,29.74,29.62,9,1,16,0.00
2013-8-28,101.0,83.9,67.9,62.2,55.9,49.1,71,42,23,29.77,29.66,8,1,14,0.00
2013-8-29,99.7,83.6,70.1,69.5,60.8,52.8,62,47,26,29.82,29.75,6,0,12,0.00
2013-8-30,98.2,83.3,75.4,69.0,66.3,60.4,75,59,30,29.86,29.76,14,1,20,0.00
2013-8-31,94.3,82.7,73.7,69.7,66.0,63.8,78,59,39,29.86,29.73,7,1,13,0.00
2013-9-1,97.5,82.1,72.3,68.5,63.9,55.1,77,57,26,29.82,29.69,6,1,16,0.00
2013-9-2,98.7,81.9,68.1,65.7,61.3,52.8,80,54,23,29.82,29.67,9,0,18,0.00
2013-9-3,102.0,85.8,71.8,63.3,58.9,50.8,74,44,21,29.78,29.67,9,1,15,0.00
2013-9-4,101.0,84.5,70.4,62.6,57.5,51.3,71,43,23,29.80,29.70,7,0,14,0.00
2013-9-5,103.6,85.2,71.3,62.2,58.1,51.4,67,43,19,29.78,29.67,8,0,16,0.00
2013-9-6,102.0,85.7,71.8,67.5,56.0,48.4,66,40,18,29.77,29.65,8,1,15,0.11
2013-9-7,99.0,81.5,72.8,68.6,61.1,54.0,78,53,25,29.76,29.67,10,0,17,0.29
2013-9-8,96.8,87.1,72.8,62.8,46.8,39.2,71,26,16,29.73,29.61,8,2,12,0.01
2013-9-9,94.3,79.8,68.8,55.5,51.4,42.4,62,39,19,29.68,29.58,6,1,13,0.00
2013-9-10,91.8,74.2,63.2,57.6,51.2,38.7,77,49,21,29.82,29.66,8,1,15,0.00
2013-9-11,92.1,73.1,57.3,55.8,51.2,31.6,83,53,15,29.87,29.78,6,0,13,0.00
2013-9-12,96.6,75.8,56.3,55.3,44.7,25.7,71,39,9,29.82,29.69,7,0,12,0.00
2013-9-13,99.7,78.2,58.1,53.9,45.3,25.8,69,37,10,29.73,29.55,6,0,14,0.00
2013-9-14,102.8,81.2,61.6,52.6,47.5,36.8,70,36,11,29.61,29.49,8,1,13,0.00
2013-9-15,103.6,86.1,65.8,53.6,45.8,32.3,59,28,12,29.66,29.55,8,1,14,0.00
2013-9-16,102.5,80.5,62.3,58.4,48.6,37.0,60,37,11,29.71,29.59,7,1,14,0.00
2013-9-17,94.5,74.9,59.0,56.1,48.6,36.2,75,46,14,29.70,29.59,7,1,12,0.00
2013-9-18,88.8,68.9,55.9,56.7,50.7,33.2,89,59,15,29.70,29.60,7,0,12,0.00
2013-9-19,93.4,71.0,54.7,57.2,52.6,46.6,80,57,23,29.71,29.60,6,1,13,0.00
2013-9-20,84.1,67.2,58.9,61.5,56.0,51.8,89,70,35,29.78,29.68,6,1,12,0.00
2013-9-21,84.9,68.5,58.1,56.5,53.5,46.6,85,62,30,29.79,29.66,7,1,13,0.00
2013-9-22,80.1,66.9,57.5,54.4,49.8,39.6,82,58,25,29.75,29.65,8,1,12,0.00
2013-9-23,95.1,72.8,52.8,52.7,43.6,29.7,77,43,10,29.80,29.69,4,0,12,0.00
2013-9-24,93.4,72.7,54.5,51.5,43.3,31.1,68,40,13,29.83,29.71,8,1,14,0.00
2013-9-25,83.0,65.9,51.9,52.5,44.9,36.6,72,50,21,29.74,29.60,10,1,16,0.00
2013-9-26,73.9,62.9,55.0,49.2,45.7,33.0,72,55,25,29.80,29.61,8,1,14,0.00
2013-9-27,83.0,64.4,45.7,44.0,33.6,17.7,80,41,10,29.91,29.79,6,0,10,0.00
2013-9-28,89.7,68.5,46.4,37.6,28.1,16.2,58,27,7,29.94,29.84,8,0,12,0.00
2013-9-29,90.3,70.1,49.5,42.1,31.0,17.6,57,28,8,29.97,29.84,6,0,12,0.00
2013-9-30,93.2,70.3,48.9,43.8,34.6,25.2,62,31,10,29.88,29.74,7,0,13,0.00
2013-10-1,89.5,68.8,50.2,54.0,41.6,31.4,78,43,14,29.82,29.75,7,1,13,0.00
2013-10-2,83.4,65.3,55.3,56.1,51.8,44.4,89,66,27,29.86,29.74,6,1,12,0.00
2013-10-3,79.6,64.9,57.2,54.6,52.2,46.8,83,66,35,29.82,29.68,7,1,13,0.00
2013-10-4,87.4,68.9,55.0,54.4,34.4,6.9,84,41,7,29.95,29.77,8,0,11,0.00
2013-10-5,89.9,69.4,51.6,31.4,18.4,3.0,31,16,4,30.02,29.92,6,0,14,0.00
2013-10-6,91.2,68.6,44.9,33.6,22.3,10.2,48,21,6,30.01,29.86,6,0,12,0.00
2013-10-7,90.1,68.2,50.1,41.1,28.8,15.0,48,26,7,29.88,29.77,7,0,13,0.00
2013-10-8,78.6,61.3,45.7,51.9,38.0,21.5,73,45,21,29.82,29.70,7,1,16,0.00
2013-10-9,58.4,54.0,48.6,48.9,46.8,43.6,88,77,59,29.72,29.62,7,1,15,0.39
2013-10-10,66.1,53.9,42.3,47.9,43.0,38.7,88,69,41,29.93,29.71,5,0,12,0.01
2013-10-11,78.3,59.4,43.1,50.2,42.9,36.9,87,59,24,29.94,29.81,5,0,9,0.00
2013-10-12,80.3,62.2,46.4,53.1,45.4,33.9,84,60,20,29.87,29.77,7,1,12,0.00
2013-10-13,75.3,60.4,52.3,51.5,48.5,42.4,88,68,34,29.93,29.81,6,0,12,0.00
2013-10-14,83.4,63.3,44.5,47.3,36.8,22.6,85,47,11,29.95,29.81,6,0,12,0.00
2013-10-15,84.3,64.4,45.7,40.4,32.9,22.4,69,36,12,29.89,29.78,8,0,12,0.00
2013-10-16,84.7,64.2,46.2,38.2,28.3,15.9,58,30,9,30.00,29.88,5,0,9,0.00
2013-10-17,84.0,64.6,44.5,39.5,30.8,17.3,66,33,10,29.96,29.81,6,0,12,0.00
2013-10-18,89.0,65.6,45.7,40.7,32.1,17.6,69,36,8,29.92,29.81,6,0,12,0.00
2013-10-19,90.7,66.9,46.7,39.2,30.4,10.0,59,32,5,29.93,29.82,6,0,9,0.00
2013-10-20,88.4,65.1,45.7,48.1,35.6,24.4,64,39,10,29.88,29.76,6,0,12,0.00
2013-10-21,90.1,67.6,48.3,49.0,38.2,25.0,69,38,10,29.87,29.71,5,0,12,0.00
2013-10-22,91.2,68.7,50.1,51.9,38.9,18.5,67,40,7,29.90,29.70,6,0,12,0.00
2013-10-23,76.3,65.3,52.5,53.8,51.1,48.0,88,61,40,29.87,29.72,4,0,10,0.00
2013-10-24,73.3,66.7,59.5,52.0,50.4,45.3,69,56,41,29.94,29.80,4,0,7,0.00
2013-10-25,85.3,70.0,51.4,52.4,48.0,38.9,89,48,20,30.04,29.84,4,0,9,0.00
2013-10-26,91.4,78.0,67.9,47.0,39.6,24.3,44,28,9,30.00,29.79,4,0,7,0.00
2013-10-27,85.5,77.3,68.3,46.7,39.9,29.2,46,28,14,29.85,29.65,6,0,12,0.00
2013-10-28,68.3,60.4,48.2,48.8,46.1,42.8,82,61,46,29.85,29.66,9,1,16,0.01
2013-10-29,63.9,54.0,43.9,46.7,41.9,36.6,87,66,38,29.91,29.83,6,0,10,0.00
2013-10-30,72.7,57.8,46.5,44.8,39.7,29.9,83,55,22,29.97,29.86,4,0,5,0.00
2013-10-31,81.1,59.3,40.8,38.6,30.3,18.0,77,41,10,30.02,29.88,5,0,12,0.00
2013-11-1,86.3,62.3,42.3,35.7,29.4,22.0,64,34,10,30.03,29.86,4,0,9,0.00
2013-11-2,83.0,61.0,43.2,49.4,33.6,22.1,84,42,11,29.92,29.77,7,0,15,0.00
2013-11-3,72.7,56.3,43.1,49.8,45.3,36.7,86,69,33,29.85,29.71,4,0,9,0.00
2013-11-4,62.9,56.8,52.3,48.3,44.8,41.6,77,65,49,29.84,29.68,4,0,10,0.00
2013-11-5,72.5,55.3,41.9,45.1,30.0,12.3,85,46,12,30.08,29.84,7,0,13,0.00
2013-11-6,82.6,57.6,37.9,27.1,17.6,3.3,56,27,5,30.16,30.03,3,0,6,0.00
2013-11-7,84.7,61.0,42.3,31.4,21.1,8.3,48,26,6,30.06,29.91,7,0,13,0.00
2013-11-8,84.3,61.3,42.8,32.6,23.7,8.5,52,28,7,29.98,29.83,5,0,9,0.00
2013-11-9,82.0,58.7,39.9,32.9,23.4,8.4,61,31,7,30.00,29.89,4,0,9,0.00
2013-11-10,79.8,58.4,43.8,32.7,23.8,12.2,53,30,9,30.05,29.94,4,0,7,0.00
2013-11-11,85.5,60.9,40.2,42.1,30.6,22.4,61,36,12,30.03,29.92,6,0,10,0.00
2013-11-12,77.9,61.3,45.5,42.0,36.8,31.5,65,43,20,30.09,29.99,1,0,4,0.00
2013-11-13,89.9,66.4,46.5,41.0,33.5,24.7,65,35,10,29.99,29.82,7,0,10,0.00
2013-11-14,89.7,65.6,47.1,39.1,32.1,22.5,62,34,9,29.87,29.65,7,0,13,0.00
2013-11-15,65.0,56.7,51.4,50.6,45.5,32.8,84,67,43,29.67,29.58,6,1,13,0.00
2013-11-16,58.3,55.3,52.9,49.4,45.2,40.2,85,69,52,29.85,29.66,5,0,12,0.00
2013-11-17,69.6,56.6,46.1,46.6,43.5,38.7,83,63,37,30.00,29.85,4,0,10,0.00
2013-11-18,71.3,54.8,40.6,49.1,43.1,35.8,86,67,34,30.07,29.94,6,0,9,0.00
2013-11-19,62.9,57.2,54.2,49.4,47.3,43.7,82,70,52,29.98,29.85,3,0,6,0.00
2013-11-20,62.0,56.9,53.2,50.2,47.9,45.8,82,72,57,29.88,29.79,3,0,6,0.00
2013-11-21,60.2,55.3,49.5,53.0,50.5,46.1,88,84,72,29.80,29.75,5,0,12,0.01
2013-11-22,50.7,46.7,40.5,47.1,42.8,36.9,89,86,79,29.90,29.75,4,0,7,0.00
2013-11-23,62.3,48.6,38.5,44.3,38.6,35.3,89,71,41,30.01,29.89,7,0,12,0.00
2013-11-24,64.7,49.9,37.9,41.6,37.2,33.8,87,64,35,30.11,30.00,4,0,9,0.04
2013-11-25,71.6,51.7,36.9,41.5,36.2,29.3,86,60,22,30.18,30.07,4,0,7,0.00
2013-11-26,76.0,55.8,39.3,39.0,34.3,28.7,80,50,18,30.15,29.97,2,0,5,0.00
2013-11-27,73.2,58.5,47.4,42.1,32.9,26.3,63,41,20,29.97,29.78,4,0,12,0.00
2013-11-28,71.3,53.7,41.8,43.2,35.8,29.0,75,54,23,29.98,29.82,6,0,14,0.00
2013-11-29,59.6,52.5,46.5,48.7,42.9,35.8,85,70,50,30.10,29.96,3,0,5,0.08
2013-11-30,74.0,56.1,43.1,47.8,40.6,34.9,87,61,27,30.11,29.96,5,0,12,0.00
2013-12-1,77.6,55.3,42.9,41.9,34.3,23.0,76,50,16,30.16,30.00,3,0,5,0.00
2013-12-2,74.2,53.7,39.3,38.8,31.0,24.0,67,46,16,30.07,29.82,2,0,4,0.00
2013-12-3,63.9,51.5,38.8,48.4,40.3,29.4,80,66,48,29.82,29.65,8,1,17,0.00
2013-12-4,60.1,49.8,40.3,47.9,35.5,29.2,81,59,32,29.89,29.65,6,0,15,0.00
2013-12-5,58.3,46.3,37.3,37.5,32.4,23.3,78,60,27,30.01,29.87,5,0,12,0.00
2013-12-6,54.8,44.5,35.2,37.5,32.6,29.0,79,64,41,30.10,30.01,5,0,12,0.00
2013-12-7,50.8,43.5,36.3,45.2,36.4,30.6,84,76,55,30.04,29.92,9,0,20,0.08
2013-12-8,55.0,43.1,34.6,39.1,34.3,29.0,86,72,44,30.12,30.00,4,0,12,0.00
2013-12-9,60.9,40.5,28.4,30.6,17.3,-4.9,84,48,8,30.26,30.10,6,0,12,0.00
2013-12-10,67.3,42.8,25.1,17.7,12.5,3.3,65,35,9,30.20,30.01,3,0,7,0.00
2013-12-11,73.2,48.7,32.1,22.4,16.8,6.6,60,33,8,30.13,30.01,2,0,5,0.00
2013-12-12,70.6,49.7,36.5,32.0,22.1,10.6,61,37,13,30.14,30.01,6,0,12,0.00
2013-12-13,66.8,47.0,33.2,27.7,23.8,18.3,69,44,16,30.16,30.02,4,0,7,0.00
2013-12-14,74.7,50.6,33.2,25.9,19.0,7.3,64,35,9,30.24,30.09,6,0,12,0.00
2013-12-15,81.1,54.2,35.5,26.2,19.9,13.6,52,30,8,30.19,30.01,2,0,4,0.00
2013-12-16,82.2,57.9,41.5,33.2,27.0,19.9,54,34,11,30.09,29.98,1,0,4,0.00
2013-12-17,86.1,61.0,44.6,35.4,28.7,20.2,56,33,9,30.07,29.89,2,0,5,0.00
2013-12-18,53.9,52.8,51.3,45.0,35.6,25.6,78,54,35,29.89,29.75,5,0,12,0.00
2013-12-19,52.3,47.8,41.1,45.2,42.4,37.3,87,81,69,29.75,29.61,4,0,10,0.28
2013-12-20,60.5,45.8,35.2,42.5,36.2,31.2,89,72,37,29.88,29.68,4,0,7,0.00
2013-12-21,60.1,46.2,36.8,43.7,37.2,32.1,86,72,45,30.00,29.83,5,0,9,0.00
2013-12-22,69.9,48.3,33.7,42.1,34.5,29.5,87,63,25,30.20,30.00,3,0,5,0.01
2013-12-23,73.9,52.3,37.5,35.3,31.5,26.7,77,50,19,30.26,30.13,3,0,5,0.00
2013-12-24,79.2,54.5,37.3,35.6,31.1,26.4,75,46,16,30.15,30.00,2,0,5,0.00
2013-12-25,79.8,54.6,39.2,31.4,21.8,-2.3,65,35,6,30.17,30.01,4,0,13,0.00
2013-12-26,79.6,53.4,35.6,23.9,16.7,6.3,55,29,6,30.14,29.97,6,0,17,0.00
2013-12-27,80.9,54.4,35.2,24.3,17.5,2.2,50,28,6,30.11,29.96,4,0,7,0.00
2013-12-28,74.9,54.0,40.5,30.0,20.1,9.4,48,30,9,29.98,29.83,5,0,10,0.00
2013-12-29,73.2,50.4,32.8,23.6,15.6,1.9,61,31,8,30.09,29.90,4,0,6,0.00
2013-12-30,75.3,49.4,31.8,19.7,13.1,-0.9,54,28,5,30.20,30.07,2,0,4,0.00
2013-12-31,75.4,51.1,33.8,24.9,16.3,6.4,52,30,7,30.14,29.99,3,0,6,0.00
2014-1-1,81.1,53.5,35.9,25.4,20.6,13.2,56,33,8,30.07,29.94,2,0,4,0.00
2014-1-2,80.7,55.7,37.5,29.8,24.1,18.3,60,34,11,30.06,29.90,5,0,9,0.00